"Pseudo-MPEC" for P10IohM

Created 2018 Jul 18 16:18:12 UT using Find_Orb

Click here for an explanation of pseudo-MPECs

 
 Astrometry: 
     P10IohM  C2018 07 11[CAstrometryN0jacmT'#h2CegAq$^yRe]ct6Y/kYSswcd9Wm.56F51
     P10IohM  C2018 07 11tX!SM@kLMWc6QToaEredacted;):ZW\Msee8:uO1taf6o91`@^q)F51
     P10IohM  C2018 07 11NI]wd\XU;57h'+='4Nv;lE.#+N;W2iZIgD`G;bk,+M8HTLwNEOCPF51

Station data:
(F51) Pan-STARRS 1, Haleakala  (N20.707235 W156.255910)  US/Hawaii.
   Observers N. Primak, A. Schultz, S. Watters, J. Thiel, T. Goggia. Measurer
   PS1 Science Consortium. 1.8-m Ritchey-Chrétien + CCD.

Orbital elements:  P10IohM
   Perihelion 2018 Jul 29.248127 +/- 25.5 TT =  5:57:18 (JD 2458328.748127)
Epoch 2018 Jul 12.0 TT = JDT 2458311.5   Earth MOID: 0.0203   AutoNEOCP
M 345.54635 +/- 43                  (J2000 ecliptic)
n   0.83798361 +/- 0.691            Peri.   25.69971 +/- 80
a   1.11424073 +/- 0.612            Node   282.47543 +/- 80
e   0.0730940 +/- 0.24              Incl.    2.34397 +/- 56
P   1.18/429.59d           H 26.8   G  0.15   U 12.5  SR
q 1.03279634 +/- 0.401    Q 1.19568511 +/- 19.3
From 3 observations 2018 July 11 (29.3 min); mean residual 0".19
Residuals in arcseconds: 
180711 F51  .11-  .15-    180711 F51  .23+  .29+    180711 F51  .11-  .15-    

Ephemerides (geocentric):
Date (UTC) HH   RA              Dec         delta   r     elong  mag " sig PA
---- -- -- --  -------------   -----------  ------ ------ -----  --- ---- ---
2018 07 18 16  23 43 49.720   +14 29 07.39  .04365 1.0339 112.7 22.4  72d   3
2018 07 18 17  23 43 58.150   +14 32 15.91  .04367 1.0339 112.7 22.4  72d   3
2018 07 18 18  23 44 06.572   +14 35 24.23  .04368 1.0339 112.7 22.4  72d   3
2018 07 18 19  23 44 14.986   +14 38 32.35  .04370 1.0339 112.7 22.4  72d   3
2018 07 18 20  23 44 23.392   +14 41 40.26  .04371 1.0339 112.6 22.4  72d   3
2018 07 18 21  23 44 31.790   +14 44 47.96  .04373 1.0339 112.6 22.4  72d   3
2018 07 18 22  23 44 40.180   +14 47 55.46  .04374 1.0339 112.6 22.4  73d   3
2018 07 18 23  23 44 48.563   +14 51 02.75  .04376 1.0339 112.6 22.4  73d   3
2018 07 19 00  23 44 56.937   +14 54 09.83  .04377 1.0339 112.6 22.4  73d   3
2018 07 19 01  23 45 05.304   +14 57 16.71  .04379 1.0338 112.6 22.4  73d   3
2018 07 19 02  23 45 13.663   +15 00 23.38  .04380 1.0338 112.5 22.4  73d   3
2018 07 19 03  23 45 22.014   +15 03 29.85  .04382 1.0338 112.5 22.4  73d   4
2018 07 19 04  23 45 30.358   +15 06 36.11  .04383 1.0338 112.5 22.4  73d   4
2018 07 19 05  23 45 38.693   +15 09 42.16  .04385 1.0338 112.5 22.4  73d   4
2018 07 19 06  23 45 47.021   +15 12 48.00  .04386 1.0338 112.5 22.4  73d   4
2018 07 19 07  23 45 55.341   +15 15 53.64  .04388 1.0338 112.5 22.4  73d   4
2018 07 19 08  23 46 03.653   +15 18 59.07  .04389 1.0338 112.4 22.4  73d   4
2018 07 19 09  23 46 11.957   +15 22 04.29  .04391 1.0338 112.4 22.4  73d   4
2018 07 19 10  23 46 20.254   +15 25 09.31  .04392 1.0338 112.4 22.4  73d   4
2018 07 19 11  23 46 28.543   +15 28 14.12  .04394 1.0338 112.4 22.4  73d   4
2018 07 19 12  23 46 36.824   +15 31 18.72  .04395 1.0337 112.4 22.4  73d   4
2018 07 19 13  23 46 45.097   +15 34 23.11  .04397 1.0337 112.4 22.4  73d   4
2018 07 19 14  23 46 53.363   +15 37 27.29  .04399 1.0337 112.3 22.4  73d   4
2018 07 19 15  23 47 01.620   +15 40 31.27  .04400 1.0337 112.3 22.4  73d   4
2018 07 19 16  23 47 09.871   +15 43 35.04  .04402 1.0337 112.3 22.4  73d   4
2018 07 19 17  23 47 18.113   +15 46 38.60  .04403 1.0337 112.3 22.4  73d   4
2018 07 19 18  23 47 26.348   +15 49 41.95  .04405 1.0337 112.3 22.4  73d   4
2018 07 19 19  23 47 34.574   +15 52 45.09  .04406 1.0337 112.3 22.4  73d   4
2018 07 19 20  23 47 42.794   +15 55 48.02  .04408 1.0337 112.2 22.4  73d   4
2018 07 19 21  23 47 51.005   +15 58 50.75  .04410 1.0337 112.2 22.4  73d   4
2018 07 19 22  23 47 59.209   +16 01 53.27  .04411 1.0337 112.2 22.4  73d   4
2018 07 19 23  23 48 07.405   +16 04 55.57  .04413 1.0337 112.2 22.4  73d   4
2018 07 20 00  23 48 15.594   +16 07 57.67  .04414 1.0337 112.2 22.4  73d   4
2018 07 20 01  23 48 23.774   +16 10 59.56  .04416 1.0336 112.2 22.4  73d   4
2018 07 20 02  23 48 31.948   +16 14 01.24  .04418 1.0336 112.1 22.4  73d   4
2018 07 20 03  23 48 40.113   +16 17 02.72  .04419 1.0336 112.1 22.4  73d   4
2018 07 20 04  23 48 48.271   +16 20 03.98  .04421 1.0336 112.1 22.5  73d   4
2018 07 20 05  23 48 56.421   +16 23 05.03  .04422 1.0336 112.1 22.5  73d   4
2018 07 20 06  23 49 04.564   +16 26 05.87  .04424 1.0336 112.1 22.5  73d   5
2018 07 20 07  23 49 12.698   +16 29 06.51  .04426 1.0336 112.1 22.5  73d   5
2018 07 20 08  23 49 20.826   +16 32 06.93  .04427 1.0336 112.0 22.5  73d   5
2018 07 20 09  23 49 28.945   +16 35 07.15  .04429 1.0336 112.0 22.5  73d   5
2018 07 20 10  23 49 37.057   +16 38 07.15  .04431 1.0336 112.0 22.5  73d   5
2018 07 20 11  23 49 45.162   +16 41 06.94  .04432 1.0336 112.0 22.5  73d   5
2018 07 20 12  23 49 53.259   +16 44 06.53  .04434 1.0336 112.0 22.5  73d   5
2018 07 20 13  23 50 01.348   +16 47 05.90  .04436 1.0336 112.0 22.5  73d   5
2018 07 20 14  23 50 09.429   +16 50 05.07  .04437 1.0335 111.9 22.5  73d   5
2018 07 20 15  23 50 17.504   +16 53 04.03  .04439 1.0335 111.9 22.5  73d   5